Voltar ao catálogo

RESURS O1 DEB

AtivoSSO
NORAD 23344·DEBRIS·🇷🇺 Russia

Lançado Nov 4, 1994 de Baikonur Cosmodrome

Loading…

Próximas Passagens (próximas 24 horas)

TLE

AtualizadoSource: Space-Track

Época: Sep 14, 2026, 11:42 UTC

1 23344U 94074C   26257.48771772  .00000503  00000-0  10465-3 0  9992
2 23344  97.9645 262.3174 0116863 155.9158 356.7052 14.60041402686260

Acompanhe RESURS O1 DEB em tempo real com AllMySat

Download on the App Store